RH
20 19 18 17 14 13 11 10 10 11 14 23 22 29 24 22 22 21 17 15 15 14 14 16 18 15 11 10 9 11 12 12 12 14 18 26 28 25 28 30 30 27 22 23 26 25 25 28 25
21 25 24 23 17 14 12 12 11 14 19 28 43 44 29 25 29 27 19 16 13 12 13 11 13 15 12 9 9 10 13 15 23 15 11 14 18 20 23 24 33 38 39 43 39 41 36 42 34
27 27 28 27 23 17 14 12 11 18 32 62 57 52 51 32 22 18 15 13 12 11 10 10 11 10 9 10 8 9 10 22 54 92 83 25 20 21 22 20 26 30 39 45 44 45 45 47 44
30 33 35 32 26 21 15 12 14 45 68 58 56 45 33 26 18 14 12 10 11 10 9 9 19 11 11 23 39 45 18 83 100 100 91 97 38 24 20 23 28 33 31 31 37 35 38 40 43
31 36 45 38 29 22 17 20 49 47 53 54 50 48 33 24 16 15 12 11 12 11 10 8 17 10 17 53 81 99 100 100 97 100 90 99 46 22 22 24 28 36 34 36 37 70 40 38 52
40 36 48 45 34 24 24 36 46 52 51 55 42 31 23 18 14 13 15 14 13 15 18 15 23 48 57 44 95 99 96 100 95 95 93 88 84 56 27 30 39 34 36 48 87 56 48 78 100
34 31 54 53 38 30 34 46 47 58 64 50 38 32 22 16 14 14 16 16 17 20 33 24 23 89 98 100 100 98 100 100 100 85 100 66 98 100 96 93 59 30 35 66 70 63 88 94 80
29 36 44 58 45 34 37 46 55 67 57 44 40 27 18 15 15 15 18 16 20 27 48 53 66 100 96 100 100 100 100 100 100 100 100 100 100 100 100 100 88 34 61 84 68 69 100 100 88
32 30 48 67 52 42 39 45 55 70 52 50 47 23 19 17 16 16 18 16 24 37 49 94 72 98 100 100 82 97 100 100 100 100 100 100 94 98 88 96 100 68 55 87 86 100 100 85 61
30 30 32 63 55 47 38 46 60 72 65 62 57 38 19 17 17 17 19 18 20 53 52 92 79 100 100 100 99 76 100 100 100 100 100 100 95 92 100 96 83 61 46 94 100 100 100 81 53
27 30 30 61 65 49 38 48 71 82 69 71 60 48 32 18 16 18 19 18 16 62 69 84 100 100 100 95 99 100 99 100 100 100 100 100 100 63 80 100 72 46 58 100 100 100 100 82 94
30 30 32 46 78 54 39 42 60 84 77 74 82 61 40 22 18 20 18 18 17 41 81 94 90 100 100 100 92 96 90 98 100 100 100 100 94 50 100 100 94 84 100 100 100 100 100 92 79
33 29 32 66 100 69 45 39 56 71 72 81 95 69 50 22 20 21 20 18 18 20 76 100 95 94 100 100 100 95 100 100 100 100 100 100 73 93 100 100 99 82 84 100 100 100 96 75 81
34 30 36 61 100 72 49 33 59 63 51 91 100 75 53 23 24 24 23 20 18 17 36 94 100 96 90 100 96 96 100 100 100 100 100 91 100 100 100 100 100 83 86 93 89 100 99 68 84
34 31 35 91 100 74 53 36 40 63 75 100 100 72 51 25 28 26 24 23 21 18 18 58 100 100 98 100 100 94 71 91 83 100 100 100 100 100 100 100 100 100 100 90 65 93 100 100 95
36 36 51 78 100 86 63 42 32 85 100 69 68 64 48 28 31 29 28 30 22 19 18 20 49 88 100 100 100 100 83 87 99 100 100 100 100 100 100 100 100 100 100 100 98 97 100 100 100
40 85 100 100 99 100 68 45 27 93 76 29 59 58 57 29 30 32 28 35 25 20 22 25 27 58 96 100 98 100 100 85 100 100 100 100 100 100 100 100 100 100 100 100 94 100 100 86 92
100 100 100 94 99 100 72 47 31 36 34 33 50 71 62 31 31 36 32 41 28 22 23 30 30 44 67 98 100 97 100 100 100 100 100 100 100 100 100 100 100 100 100 100 100 100 100 100 96
100 100 100 100 100 100 82 47 50 37 31 31 47 72 52 62 37 40 36 46 39 25 24 27 35 39 38 70 100 74 100 100 98 99 100 100 100 100 100 100 100 100 100 100 78 81 100 100 64
100 100 100 100 100 100 86 60 80 52 32 34 38 54 46 74 36 38 39 44 42 27 24 33 38 39 39 60 66 100 67 100 100 100 100 100 100 100 100 100 100 100 99 100 100 86 70 70 74
100 100 100 100 100 100 92 59 97 74 32 41 42 47 45 58 69 44 42 38 42 33 24 35 50 49 47 52 58 87 90 100 100 100 100 100 100 100 100 100 100 100 93 93 95 98 100 94 74
100 100 100 100 100 100 100 75 93 79 39 43 51 56 39 35 86 59 39 41 52 41 29 29 51 63 55 50 49 84 100 100 100 100 100 100 86 91 85 85 100 100 100 96 82 83 51 46 50
100 100 100 100 100 82 100 85 100 74 40 39 56 56 40 35 50 69 36 35 45 53 47 30 38 49 52 44 45 68 100 100 100 100 100 100 100 100 95 75 56 51 54 52 39 41 44 59 100
100 100 100 100 100 61 100 100 100 98 50 45 64 68 47 34 40 100 36 33 40 47 51 49 30 43 67 59 52 47 100 100 100 100 100 100 100 100 100 100 100 88 84 80 84 98 86 99 96
100 100 100 100 100 86 100 100 100 100 91 95 78 79 56 49 54 65 41 46 28 32 55 59 40 29 35 54 54 46 47 92 100 100 100 100 100 100 100 100 100 100 100 100 100 100 100 100 100
100 100 100 100 100 98 100 100 100 100 100 100 100 71 49 65 48 31 32 89 75 36 42 55 63 51 32 28 48 49 53 46 54 93 100 100 100 100 100 100 100 100 100 100 100 100 100 100 100
100 100 100 100 100 100 78 100 100 100 100 100 100 67 40 59 99 56 31 63 100 73 43 45 66 66 40 30 28 36 50 61 66 64 70 78 80 92 98 99 100 100 100 100 100 100 100 100 100
100 100 100 100 100 85 74 62 100 99 100 100 100 81 44 34 58 68 42 48 41 40 70 48 40 70 66 40 31 28 30 46 49 70 74 60 61 63 66 73 86 97 100 100 100 100 100 100 100
100 100 100 100 100 100 79 96 97 82 85 100 100 75 47 38 51 100 47 45 62 41 49 68 44 45 67 71 42 35 28 31 44 58 80 97 90 67 70 90 97 97 98 100 100 100 100 100 89
100 100 100 100 100 100 100 100 100 92 89 100 100 100 82 43 44 95 39 60 82 44 47 49 60 36 46 72 64 44 38 30 29 39 53 64 100 100 100 100 100 100 100 97 74 74 68 59 54
Wind_Speed
45 39 41 44 46 45 43 42 42 42 43 43 46 47 49 50 51 55 59 59 61 64 65 66 69 73 73 74 73 71 69 73 74 74 73 75 75 76 75 76 77 77 80 80 79 78 77 76 76
47 44 47 50 48 45 46 44 42 40 40 38 38 38 42 45 49 51 52 55 57 59 61 61 63 65 65 66 63 60 61 60 59 59 64 69 70 75 73 74 73 72 73 73 71 70 70 68 70
44 45 48 53 52 48 46 40 41 37 36 36 38 41 46 44 45 47 49 53 56 59 59 61 60 61 61 57 54 54 54 50 43 36 44 54 61 66 68 69 72 71 66 67 66 61 58 62 62
47 47 50 50 52 51 46 39 37 32 27 33 39 40 40 42 42 45 46 47 51 55 54 54 50 52 49 40 40 37 34 30 35 42 42 45 50 57 59 61 60 64 64 62 61 56 55 60 54
53 50 50 49 50 46 42 34 24 24 29 37 41 42 45 44 43 47 48 45 48 47 47 43 43 42 39 29 20 21 18 22 50 41 41 42 40 46 52 52 56 53 55 53 51 39 48 45 43
53 51 51 48 48 40 34 24 23 30 35 32 36 41 40 39 42 43 42 41 42 38 42 40 34 30 28 28 28 34 34 23 35 47 27 24 31 33 41 46 46 43 40 40 33 42 34 28 26
44 49 50 49 48 35 31 30 30 30 30 29 36 38 37 36 40 41 37 37 33 33 35 29 21 19 19 22 34 42 46 42 55 42 31 28 21 31 36 45 47 41 35 35 34 25 26 28 23
52 51 49 48 49 37 36 35 37 33 28 31 35 36 34 38 36 36 33 31 28 30 27 25 12 18 28 33 38 46 48 48 48 41 36 32 25 27 33 35 38 40 32 25 23 27 28 23 19
54 53 51 47 49 40 36 39 34 32 31 34 35 33 32 38 38 34 27 28 25 26 23 23 19 23 26 44 45 55 58 47 44 45 45 38 39 30 24 25 30 37 31 32 34 22 25 21 22
54 54 55 47 46 41 38 39 34 32 34 37 36 34 31 38 36 32 27 25 23 23 21 23 21 29 34 47 50 52 65 54 56 52 47 49 45 36 25 28 32 35 35 32 30 20 23 21 23
59 60 52 49 47 44 39 39 36 33 36 36 36 35 38 38 39 34 27 25 24 22 20 19 22 29 34 37 42 50 54 64 53 54 48 47 45 45 29 25 30 38 40 35 29 28 27 32 25
58 63 53 47 48 46 39 38 36 34 38 35 38 38 38 38 34 33 28 24 24 24 23 21 23 27 34 39 38 41 47 53 62 59 53 50 48 39 29 29 32 34 34 27 26 31 34 34 29
67 66 55 44 46 48 42 39 39 35 37 35 40 41 41 33 35 34 28 27 24 21 25 24 20 27 27 27 36 38 46 49 54 57 60 54 38 35 32 26 30 33 32 27 30 32 30 29 30
67 63 53 46 46 48 43 37 37 34 32 36 38 40 39 34 34 31 25 25 25 22 24 27 26 25 27 23 27 33 41 47 56 61 59 46 38 38 32 30 34 28 28 29 29 32 34 30 34
61 58 51 48 44 46 44 39 35 34 34 36 34 39 36 31 27 28 27 24 26 26 21 33 31 28 31 29 21 17 40 43 48 59 52 50 35 43 35 33 37 34 44 34 32 32 40 38 40
55 53 50 49 44 44 44 42 31 37 35 36 30 36 35 23 26 28 23 24 25 27 25 25 34 33 33 32 27 27 25 43 47 57 58 48 31 37 38 43 39 44 41 47 32 36 40 45 43
51 50 48 47 46 44 45 42 29 36 36 29 31 33 34 25 25 29 23 22 26 26 24 24 26 35 28 39 33 27 20 43 45 55 64 60 42 42 45 47 45 54 44 45 36 41 45 49 48
50 53 50 46 43 45 48 41 33 34 32 27 29 32 33 26 24 27 24 21 24 25 21 22 22 29 34 29 38 31 22 28 47 53 58 56 46 47 49 48 49 53 48 46 47 50 47 48 42
54 52 50 46 45 46 43 40 35 32 31 23 24 30 30 26 23 25 26 19 22 26 23 22 23 24 28 36 33 39 30 30 44 53 39 54 52 48 50 47 52 54 52 55 51 52 54 53 50
55 55 50 48 47 45 41 40 38 33 29 23 20 25 27 25 20 23 26 20 20 24 21 17 18 21 23 29 36 40 39 33 45 44 50 47 49 48 46 50 52 56 58 58 53 57 57 56 53
54 52 51 49 46 43 42 40 40 37 29 25 21 22 23 24 24 26 27 22 19 22 22 16 16 18 16 24 30 32 44 38 36 46 46 47 50 53 53 55 54 52 53 55 56 60 62 58 58
54 53 53 47 47 43 44 40 43 41 30 26 22 24 23 21 22 25 24 23 20 19 22 20 13 14 20 20 26 30 44 43 41 46 45 46 50 47 56 51 57 60 57 56 57 62 62 60 62
51 55 52 48 47 42 41 41 49 42 32 28 27 26 25 23 20 21 19 23 21 18 19 21 14 12 13 16 25 29 41 47 47 50 51 52 55 52 51 52 49 58 64 68 68 65 63 60 64
56 58 51 49 50 46 44 46 49 48 34 31 30 29 28 25 23 23 24 21 21 21 18 19 19 13 10 11 18 22 32 41 50 50 51 54 58 58 59 57 58 59 61 64 67 65 66 68 68
55 54 53 52 47 48 48 48 45 49 42 37 33 33 31 27 25 24 20 20 22 21 21 19 17 17 14 14 14 19 25 33 39 49 53 56 56 59 61 60 58 61 67 68 69 71 68 67 69
52 52 54 55 54 56 49 46 46 50 50 42 40 34 33 30 29 24 21 21 25 24 21 20 18 17 19 16 17 16 18 25 33 38 44 52 59 60 59 61 59 59 61 67 66 64 66 67 66
52 52 52 53 50 54 53 51 49 44 50 46 46 41 36 31 29 28 25 22 27 27 23 21 19 18 16 18 16 19 22 22 23 30 35 39 41 44 45 49 57 58 59 59 59 59 60 63 64
54 56 55 50 51 53 52 52 56 51 48 47 48 44 39 37 33 32 33 26 25 26 26 24 22 20 18 17 17 18 19 25 26 28 28 26 29 33 38 41 43 46 48 49 53 55 56 58 59
60 58 56 48 51 51 52 54 56 54 50 48 47 48 47 40 35 36 36 33 30 31 28 28 25 22 20 21 19 20 18 17 26 29 31 30 29 28 30 33 35 38 42 45 46 48 48 50 51
58 55 56 58 58 55 55 56 56 56 55 52 53 53 48 41 36 39 39 38 38 38 32 29 29 26 24 20 21 19 19 18 16 20 29 36 39 38 38 39 43 45 46 45 47 46 50 50 50
Wind_Direction
299 306 307 304 300 298 293 290 283 273 270 272 272 271 272 274 275 274 271 269 268 267 266 265 264 266 266 265 264 263 261 261 261 261 257 255 254 255 255 255 256 256 255 256 257 259 259 259 258
293 300 304 306 308 301 296 293 286 279 274 273 277 283 282 279 277 278 279 278 275 272 270 269 267 266 266 265 264 265 264 265 267 268 264 257 253 253 251 251 253 254 256 256 255 257 259 261 261
293 295 302 305 307 307 300 288 286 280 280 280 284 283 286 286 287 283 280 278 275 272 271 272 272 270 269 268 268 267 262 264 275 275 270 258 252 251 251 249 247 251 251 255 255 256 257 260 262
295 296 299 300 305 308 303 290 282 277 272 276 279 284 287 284 287 288 283 279 275 273 271 269 268 266 264 266 262 258 253 251 271 275 280 253 250 249 247 248 248 247 250 254 254 257 254 260 265
297 296 296 298 303 305 301 289 277 271 273 275 284 285 290 297 294 287 289 290 284 286 283 282 280 274 266 251 214 203 193 180 256 265 281 237 242 247 247 247 247 244 246 252 256 251 257 262 264
296 296 294 295 302 301 293 280 267 277 275 285 292 297 302 297 297 295 294 290 290 291 286 283 271 265 250 227 186 180 174 178 243 252 262 244 245 247 248 250 246 243 242 247 242 254 262 250 240
293 300 292 293 297 294 285 276 269 277 283 289 292 298 308 298 294 295 294 293 296 287 277 271 272 231 217 180 182 184 175 195 220 233 241 209 237 249 245 225 246 240 235 236 248 233 232 224 220
295 292 290 289 293 289 276 275 278 286 284 283 301 305 309 302 298 299 299 297 291 282 265 259 215 228 206 190 195 176 184 193 210 224 225 215 221 233 229 244 239 229 227 230 242 230 221 217 218
289 295 284 283 288 284 276 277 280 281 282 289 301 306 313 306 301 302 299 302 292 275 261 244 229 229 203 204 194 184 190 201 201 215 221 222 221 226 227 242 241 227 215 215 234 222 216 218 201
294 292 287 278 280 279 279 274 277 277 282 289 300 302 307 310 309 309 300 300 292 269 254 248 236 223 213 203 214 200 199 206 206 206 222 226 227 223 232 241 232 214 210 218 223 224 214 211 202
286 293 284 273 273 274 278 272 273 275 281 289 301 303 301 302 310 309 301 303 295 257 249 244 231 223 222 229 217 218 212 209 209 212 221 218 223 226 227 235 231 216 207 216 234 231 212 210 217
282 289 284 274 267 271 273 270 265 270 280 286 301 299 299 309 309 308 305 304 299 261 240 234 231 232 233 228 230 219 220 216 223 228 218 206 213 221 218 222 208 197 209 212 221 225 221 210 233
278 283 281 268 263 266 270 270 264 268 280 286 295 298 302 303 310 306 304 302 302 273 235 226 230 229 216 226 233 230 222 218 215 215 212 209 223 212 207 207 214 220 215 219 227 223 226 247 249
271 279 273 261 258 261 265 268 266 269 277 287 286 289 296 303 307 304 310 306 305 291 241 229 232 232 220 220 239 233 220 217 208 214 212 209 216 208 204 214 218 235 228 232 232 241 250 254 261
270 272 265 256 254 254 261 267 267 271 277 282 282 285 294 307 309 307 313 314 316 301 266 224 224 228 224 214 219 235 224 217 209 209 207 196 203 208 219 223 218 237 230 237 247 236 248 263 261
268 269 256 250 248 250 256 264 262 271 275 287 274 281 296 293 316 318 313 320 316 308 285 253 224 224 224 219 208 234 232 213 213 206 200 199 217 220 216 221 228 230 230 235 234 240 252 258 254
266 251 251 250 245 244 250 262 260 267 275 279 275 282 293 301 306 318 315 324 326 318 288 271 248 225 221 218 208 218 238 217 212 209 203 206 216 212 215 220 229 230 233 231 245 246 244 251 257
239 245 249 247 243 241 250 255 257 256 269 277 281 282 294 311 302 314 319 326 333 327 303 280 265 240 229 226 217 208 228 219 210 208 210 216 222 227 226 224 227 231 228 228 235 240 242 236 249
229 235 243 240 245 244 245 253 254 255 265 275 280 277 290 306 297 313 321 324 337 333 316 293 277 255 234 225 224 215 216 205 209 217 218 218 222 229 232 235 235 229 229 235 238 235 235 250 258
232 233 238 238 243 244 243 249 254 253 264 271 269 283 294 296 314 313 319 321 334 335 328 307 282 267 244 230 225 223 216 222 208 215 218 221 227 231 234 239 239 238 238 239 243 239 245 252 259
231 228 236 236 241 243 240 242 250 252 265 269 270 283 296 290 308 324 318 320 329 341 347 329 303 282 259 238 223 222 218 217 214 218 222 229 228 232 236 235 236 242 249 249 248 251 251 257 262
230 229 234 234 239 241 239 240 245 250 263 265 266 275 296 287 300 323 310 324 327 340 358 350 319 277 261 225 213 217 216 213 214 221 227 229 232 237 239 242 240 238 243 245 252 254 261 263 262
222 228 231 235 238 238 236 237 248 249 260 266 262 268 286 287 289 306 313 328 324 330 351 358 341 316 246 230 214 215 212 209 207 216 228 230 236 237 240 245 249 249 250 252 256 258 261 261 262
223 227 229 237 237 233 234 235 246 252 259 260 262 268 278 290 283 293 310 327 338 328 335 355 353 320 293 251 241 221 213 211 215 217 222 226 229 233 240 245 246 248 248 251 252 253 255 259 262
224 228 231 233 234 231 235 238 240 255 258 259 259 263 274 286 285 287 302 314 334 335 326 333 350 348 320 276 256 242 228 218 220 223 225 225 233 233 238 241 241 245 247 250 254 254 257 259 259
222 227 232 235 237 235 237 238 242 253 259 257 257 261 269 277 284 288 304 303 308 326 325 320 324 338 340 329 277 258 240 237 230 230 231 230 232 235 238 241 243 242 244 245 247 251 256 253 255
222 228 232 236 238 238 238 234 245 248 251 253 257 259 265 271 277 286 285 294 299 307 309 320 311 317 331 333 321 274 249 240 237 235 238 240 238 237 239 243 241 241 243 246 248 250 254 252 253
220 226 230 233 236 238 240 244 243 246 250 252 256 259 263 264 273 283 282 283 300 298 305 306 309 302 305 313 320 329 287 257 247 237 240 241 243 247 246 243 243 245 245 248 249 251 251 254 258
223 228 231 235 236 238 237 242 242 248 253 255 256 258 264 263 270 276 281 284 293 303 298 299 301 299 297 291 304 319 322 296 268 253 245 249 249 246 245 243 246 249 248 250 252 252 256 259 263
225 227 229 234 236 236 236 240 247 251 250 251 254 259 262 257 263 269 278 284 279 294 291 296 296 291 291 285 284 294 312 321 315 275 257 253 244 244 247 247 250 253 254 253 257 262 267 267 269